^^
Saratoga-Weather Station Historical Data
Daily Summary for May 14, 2022 Units:  English    Metric   Both
Daily Weekly Monthly Yearly Custom
  High: Low: Average:
Temperature: 76.3 °F 45.9 °F 61.9 °F
Dew Point: 53.2 °F 43.2 °F 48 °F
Humidity: 91% 38% 63%
Wind Speed: 6mph 0mph 1.1mph
Wind Gust: 9mph - -
Wind- - South
Pressure: 30.2 in 30.1 in -
Precipitation: 0 in    
Historical Graphs
 
 
Tabular Data for May 14, 2022
Time Temperature Dew Point Pressure Wind Wind Speed Wind Gust Humidity Rainfall Rate (Hourly) solar
00:02 54 °F 45.5 °F 30.1 in Calm   1 mph 73% 0 in 0 W/m2
00:12 53.6 °F 45.5 °F 30.1 in Calm   2 mph 74% 0 in 0 W/m2
00:17 53.4 °F 45.7 °F 30.1 in Calm     75% 0 in 0 W/m2
00:22 53.4 °F 45.7 °F 30.1 in West 2 mph 2 mph 75% 0 in 0 W/m2
00:27 53.4 °F 46 °F 30.1 in West 0.9 mph 2 mph 76% 0 in 0 W/m2
00:32 53.4 °F 46 °F 30.1 in Calm     76% 0 in 0 W/m2
00:37 53.4 °F 46 °F 30.1 in Calm     76% 0 in 0 W/m2
00:42 53.2 °F 45.9 °F 30.1 in Calm     76% 0 in 0 W/m2
00:47 53.1 °F 45.7 °F 30.1 in Calm     76% 0 in 0 W/m2
00:52 52.9 °F 45.5 °F 30.1 in Calm     76% 0 in 0 W/m2
00:57 52.7 °F 45.3 °F 30.1 in Calm     76% 0 in 0 W/m2
01:02 52.7 °F 45.7 °F 30.1 in Calm   1 mph 77% 0 in 0 W/m2
01:07 52.7 °F 45.7 °F 30.1 in Calm   1 mph 77% 0 in 0 W/m2
01:12 52.7 °F 45.7 °F 30.1 in West 0.9 mph 2 mph 77% 0 in 0 W/m2
01:17 52.5 °F 45.5 °F 30.1 in Calm   2 mph 77% 0 in 0 W/m2
01:22 52.5 °F 45.9 °F 30.1 in Calm     78% 0 in 0 W/m2
01:27 52.3 °F 45.7 °F 30.1 in Calm   2 mph 78% 0 in 0 W/m2
01:32 52.3 °F 45.7 °F 30.1 in Calm     78% 0 in 0 W/m2
01:37 52.2 °F 45.9 °F 30.1 in Calm     79% 0 in 0 W/m2
01:42 52 °F 45.7 °F 30.1 in Calm     79% 0 in 0 W/m2
01:47 52 °F 45.7 °F 30.1 in Calm     79% 0 in 0 W/m2
01:52 51.6 °F 45.3 °F 30.1 in Calm     79% 0 in 0 W/m2
01:57 51.4 °F 45.1 °F 30.1 in Calm     79% 0 in 0 W/m2
02:02 51.3 °F 45.3 °F 30.1 in Calm     80% 0 in 0 W/m2
02:07 51.1 °F 45.1 °F 30.1 in Calm   1 mph 80% 0 in 0 W/m2
02:12 50.7 °F 45.1 °F 30.1 in Calm     81% 0 in 0 W/m2
02:17 50.5 °F 45 °F 30.1 in Calm   1 mph 81% 0 in 0 W/m2
02:22 50.4 °F 44.8 °F 30.1 in Calm     81% 0 in 0 W/m2
02:27 50.2 °F 44.6 °F 30.1 in Calm     81% 0 in 0 W/m2
02:32 50 °F 44.8 °F 30.1 in Calm     82% 0 in 0 W/m2
02:37 49.6 °F 44.8 °F 30.1 in Calm     83% 0 in 0 W/m2
02:42 49.6 °F 44.8 °F 30.1 in Calm     83% 0 in 0 W/m2
02:47 49.5 °F 44.6 °F 30.1 in Calm     83% 0 in 0 W/m2
02:52 49.3 °F 44.4 °F 30.1 in Calm     83% 0 in 0 W/m2
02:57 48.9 °F 44.1 °F 30.1 in Calm     83% 0 in 0 W/m2
03:02 48.9 °F 44.2 °F 30.1 in Calm     84% 0 in 0 W/m2
03:07 48.7 °F 44.1 °F 30.1 in Calm     84% 0 in 0 W/m2
03:12 48.6 °F 43.9 °F 30.1 in Calm     84% 0 in 0 W/m2
03:22 48.4 °F 44.1 °F 30.1 in Calm     85% 0 in 0 W/m2
03:27 48.4 °F 44.4 °F 30.1 in Calm     86% 0 in 0 W/m2
03:32 48.4 °F 44.4 °F 30.1 in Calm     86% 0 in 0 W/m2
03:37 48.6 °F 44.6 °F 30.1 in Calm     86% 0 in 0 W/m2
03:42 48.4 °F 44.1 °F 30.1 in Calm     85% 0 in 0 W/m2
03:47 48.4 °F 44.1 °F 30.1 in Calm     85% 0 in 0 W/m2
03:52 48.2 °F 43.9 °F 30.1 in Calm     85% 0 in 0 W/m2
03:57 48 °F 44.1 °F 30.1 in Calm     86% 0 in 0 W/m2
04:02 47.8 °F 43.9 °F 30.1 in Calm     86% 0 in 0 W/m2
04:07 47.7 °F 43.7 °F 30.1 in Calm     86% 0 in 0 W/m2
04:12 47.7 °F 44.1 °F 30.1 in Calm     87% 0 in 0 W/m2
04:17 47.5 °F 43.9 °F 30.1 in Calm     87% 0 in 0 W/m2
04:22 47.3 °F 43.7 °F 30.1 in Calm     87% 0 in 0 W/m2
04:27 47.3 °F 43.9 °F 30.1 in Calm     88% 0 in 0 W/m2
04:32 47.1 °F 43.7 °F 30.1 in Calm     88% 0 in 0 W/m2
04:37 47.1 °F 43.7 °F 30.1 in Calm     88% 0 in 0 W/m2
04:42 47.1 °F 43.7 °F 30.1 in Calm     88% 0 in 0 W/m2
04:47 47.1 °F 43.7 °F 30.1 in Calm     88% 0 in 0 W/m2
04:52 47.1 °F 43.7 °F 30.1 in Calm     88% 0 in 0 W/m2
04:57 46.9 °F 43.5 °F 30.1 in Calm     88% 0 in 0 W/m2
05:02 46.9 °F 43.5 °F 30.1 in Calm     88% 0 in 0 W/m2
05:07 46.8 °F 43.3 °F 30.1 in Calm     88% 0 in 0 W/m2
05:12 46.8 °F 43.7 °F 30.1 in Calm     89% 0 in 0 W/m2
05:17 46.8 °F 43.7 °F 30.1 in Calm     89% 0 in 0 W/m2
05:22 46.8 °F 43.7 °F 30.1 in Calm     89% 0 in 0 W/m2
05:27 46.6 °F 43.5 °F 30.1 in Calm     89% 0 in 0 W/m2
05:32 46.4 °F 43.3 °F 30.1 in Calm     89% 0 in 0 W/m2
05:37 46.4 °F 43.3 °F 30.1 in Calm     89% 0 in 0 W/m2
05:42 46.2 °F 43.2 °F 30.1 in Calm     89% 0 in 0 W/m2
05:47 46.2 °F 43.2 °F 30.1 in Calm     89% 0 in 0 W/m2
05:53 46 °F 43.3 °F 30.1 in Calm     90% 0 in 0 W/m2
05:58 46 °F 43.3 °F 30.1 in Calm     90% 0 in 0 W/m2
06:03 46 °F 43.3 °F 30.2 in Calm     90% 0 in 5 W/m2
06:08 46 °F 43.3 °F 30.2 in Calm     90% 0 in 9 W/m2
06:13 46 °F 43.3 °F 30.2 in Calm     90% 0 in 11 W/m2
06:18 46 °F 43.3 °F 30.2 in Calm     90% 0 in 12 W/m2
06:23 45.9 °F 43.2 °F 30.2 in Calm     90% 0 in 16 W/m2
06:28 46 °F 43.3 °F 30.2 in Calm     90% 0 in 18 W/m2
06:33 46 °F 43.3 °F 30.2 in Calm     90% 0 in 19 W/m2
06:38 46 °F 43.3 °F 30.2 in Calm     90% 0 in 21 W/m2
06:43 46 °F 43.5 °F 30.2 in Calm     91% 0 in 23 W/m2
06:48 46.2 °F 43.5 °F 30.2 in Calm     90% 0 in 25 W/m2
06:53 46.2 °F 43.5 °F 30.2 in Calm     90% 0 in 25 W/m2
06:58 46.6 °F 44.1 °F 30.2 in Calm     91% 0 in 25 W/m2
07:03 46.8 °F 44.2 °F 30.2 in Calm     91% 0 in 25 W/m2
07:08 46.9 °F 44.2 °F 30.2 in Calm     90% 0 in 26 W/m2
07:13 46.9 °F 44.2 °F 30.2 in Calm     90% 0 in 35 W/m2
07:18 47.3 °F 44.6 °F 30.2 in Calm     90% 0 in 81 W/m2
07:23 47.8 °F 45.3 °F 30.2 in Calm     91% 0 in 121 W/m2
07:28 49.1 °F 46.2 °F 30.2 in Calm   1 mph 90% 0 in 137 W/m2
07:33 50.7 °F 47.3 °F 30.2 in Calm     88% 0 in 151 W/m2
07:38 52.2 °F 47.5 °F 30.2 in NW 0.9 mph 1 mph 84% 0 in 165 W/m2
07:43 53.2 °F 47.5 °F 30.2 in NW 0.9 mph 1 mph 81% 0 in 181 W/m2
07:48 54 °F 48 °F 30.2 in Calm   1 mph 80% 0 in 195 W/m2
07:53 55 °F 48 °F 30.2 in Calm     77% 0 in 209 W/m2
07:58 55 °F 47.7 °F 30.2 in Calm   1 mph 76% 0 in 216 W/m2
08:03 55.2 °F 47.8 °F 30.2 in Calm   1 mph 76% 0 in 162 W/m2
08:08 55.8 °F 48.4 °F 30.2 in Calm   1 mph 76% 0 in 81 W/m2
08:13 56.7 °F 48.7 °F 30.2 in Calm     75% 0 in 47 W/m2
08:18 57.6 °F 48.9 °F 30.2 in Calm     73% 0 in 47 W/m2
08:23 58.6 °F 49.3 °F 30.2 in Calm   1 mph 71% 0 in 47 W/m2
08:28 59.5 °F 49.3 °F 30.2 in Calm   2 mph 69% 0 in 47 W/m2
08:33 59.5 °F 48.9 °F 30.2 in ENE 0.9 mph 3 mph 68% 0 in 47 W/m2
08:38 59.2 °F 49.1 °F 30.2 in NE 2 mph 2 mph 69% 0 in 47 W/m2
08:43 59.4 °F 48.7 °F 30.2 in NE 2 mph 3 mph 68% 0 in 47 W/m2
08:48 59.4 °F 48.7 °F 30.2 in ESE 2 mph 3 mph 68% 0 in 47 W/m2
08:53 59.5 °F 48.6 °F 30.2 in Calm   1 mph 67% 0 in 49 W/m2
08:58 59.7 °F 48.7 °F 30.2 in Calm   3 mph 67% 0 in 47 W/m2
09:03 59.7 °F 48.7 °F 30.2 in East 2 mph 2 mph 67% 0 in 47 W/m2
09:08 59.9 °F 48.9 °F 30.2 in ENE 2 mph 2 mph 67% 0 in 47 W/m2
09:13 60.1 °F 49.1 °F 30.2 in NE 2 mph 3 mph 67% 0 in 47 W/m2
09:18 60.3 °F 49.3 °F 30.2 in East 0.9 mph 3 mph 67% 0 in 49 W/m2
09:23 60.6 °F 49.3 °F 30.2 in ESE 0.9 mph 2 mph 66% 0 in 49 W/m2
09:28 61 °F 48.7 °F 30.2 in Calm   3 mph 64% 0 in 49 W/m2
09:33 61.2 °F 49.3 °F 30.2 in SE 0.9 mph 3 mph 65% 0 in 51 W/m2
09:38 61.3 °F 49.1 °F 30.2 in ESE 0.9 mph 3 mph 64% 0 in 51 W/m2
09:43 61.5 °F 49.6 °F 30.2 in WNW 2 mph 3 mph 65% 0 in 53 W/m2
09:48 61.5 °F 49.6 °F 30.2 in ENE 2 mph 3 mph 65% 0 in 53 W/m2
09:53 61.7 °F 50.2 °F 30.2 in ENE 2.9 mph 4 mph 66% 0 in 54 W/m2
09:58 62.1 °F 50.2 °F 30.2 in East 2 mph 4 mph 65% 0 in 111 W/m2
10:03 62.4 °F 50 °F 30.2 in ENE 2.9 mph 3 mph 64% 0 in 494 W/m2
10:08 62.6 °F 49.5 °F 30.2 in ESE 2 mph 4 mph 62% 0 in 577 W/m2
10:13 63 °F 50.5 °F 30.2 in East 4.9 mph 5 mph 64% 0 in 591 W/m2
10:18 63.1 °F 49.8 °F 30.2 in East 0.9 mph 3 mph 62% 0 in 603 W/m2
10:23 63.7 °F 50 °F 30.2 in Calm   1 mph 61% 0 in 619 W/m2
10:28 63.9 °F 50.2 °F 30.2 in East 2.9 mph 4 mph 61% 0 in 635 W/m2
10:33 64 °F 50.4 °F 30.2 in East 2 mph 2 mph 61% 0 in 650 W/m2
10:38 64.6 °F 50.4 °F 30.2 in East 0.9 mph 3 mph 60% 0 in 657 W/m2
10:43 64.8 °F 49.6 °F 30.2 in East 0.9 mph 3 mph 58% 0 in 643 W/m2
10:48 64.9 °F 50.2 °F 30.2 in East 2 mph 4 mph 59% 0 in 626 W/m2
10:53 65.1 °F 50 °F 30.2 in ESE 0.9 mph 4 mph 58% 0 in 682 W/m2
10:58 65.7 °F 50.5 °F 30.2 in NNE 0.9 mph 2 mph 58% 0 in 707 W/m2
11:03 65.5 °F 49.8 °F 30.2 in North 0.9 mph 6 mph 57% 0 in 701 W/m2
11:08 65.7 °F 50.5 °F 30.2 in East 2 mph 3 mph 58% 0 in 722 W/m2
11:13 66 °F 50.4 °F 30.2 in WNW 2 mph 6 mph 57% 0 in 729 W/m2
11:18 65.8 °F 50.2 °F 30.2 in ENE 2 mph 6 mph 57% 0 in 740 W/m2
11:23 65.8 °F 49.6 °F 30.2 in NE 2 mph 4 mph 56% 0 in 756 W/m2
11:28 66.2 °F 50.9 °F 30.2 in ENE 4.9 mph 6 mph 58% 0 in 768 W/m2
11:33 66.4 °F 50.7 °F 30.2 in ENE 2.9 mph 7 mph 57% 0 in 700 W/m2
11:38 66.6 °F 50.9 °F 30.2 in ESE 2 mph 4 mph 57% 0 in 770 W/m2
11:43 66.7 °F 50.5 °F 30.2 in ENE 2 mph 6 mph 56% 0 in 789 W/m2
11:48 66.9 °F 50.7 °F 30.2 in East 0.9 mph 4 mph 56% 0 in 791 W/m2
11:53 66.9 °F 50.7 °F 30.2 in ENE 2.9 mph 5 mph 56% 0 in 795 W/m2
11:58 66.9 °F 50.2 °F 30.2 in East 0.9 mph 4 mph 55% 0 in 805 W/m2
12:03 66.9 °F 50.2 °F 30.2 in ENE 2.9 mph 5 mph 55% 0 in 780 W/m2
12:08 67.3 °F 51.1 °F 30.2 in North 4 mph 5 mph 56% 0 in 823 W/m2
12:13 67.6 °F 50.9 °F 30.2 in NE 2 mph 4 mph 55% 0 in 819 W/m2
12:18 68.4 °F 50 °F 30.1 in WNW 4 mph 8 mph 52% 0 in 817 W/m2
12:23 68.4 °F 49.5 °F 30.1 in West 2.9 mph 5 mph 51% 0 in 840 W/m2
12:28 68.5 °F 49.6 °F 30.1 in West 0.9 mph 8 mph 51% 0 in 828 W/m2
12:33 68.2 °F 49.8 °F 30.1 in NW 2.9 mph 4 mph 52% 0 in 860 W/m2
12:38 68.2 °F 49.3 °F 30.1 in WNW 2 mph 2 mph 51% 0 in 842 W/m2
12:43 68.5 °F 49.1 °F 30.1 in WNW 2 mph 4 mph 50% 0 in 823 W/m2
12:48 69.1 °F 49.1 °F 30.1 in West 6 mph 6 mph 49% 0 in 861 W/m2
12:53 69.3 °F 48.7 °F 30.1 in North 6 mph 6 mph 48% 0 in 868 W/m2
12:58 69.4 °F 48.4 °F 30.1 in NNW 0.9 mph 2 mph 47% 0 in 865 W/m2
13:03 69.8 °F 50.4 °F 30.1 in SSW 0.9 mph 2 mph 50% 0 in 886 W/m2
13:08 70.2 °F 48.9 °F 30.1 in WSW 4.9 mph 6 mph 47% 0 in 904 W/m2
13:13 70.3 °F 48.6 °F 30.1 in NW 2.9 mph 9 mph 46% 0 in 835 W/m2
13:18 70.3 °F 49.1 °F 30.1 in NW 2.9 mph 8 mph 47% 0 in 856 W/m2
13:23 70.2 °F 48.9 °F 30.1 in NNW 4 mph 9 mph 47% 0 in 835 W/m2
13:28 69.6 °F 47.8 °F 30.1 in NNW 0.9 mph 4 mph 46% 0 in 835 W/m2
13:33 70.3 °F 48 °F 30.1 in NW 4.9 mph 7 mph 45% 0 in 889 W/m2
13:39 70.5 °F 48.7 °F 30.1 in NW 2.9 mph 3 mph 46% 0 in 914 W/m2
13:44 70.5 °F 48.7 °F 30.1 in West 2 mph 4 mph 46% 0 in 884 W/m2
13:49 70.7 °F 48.9 °F 30.1 in WSW 2.9 mph 5 mph 46% 0 in 881 W/m2
13:54 71.2 °F 49.5 °F 30.1 in South 0.9 mph 2 mph 46% 0 in 791 W/m2
13:59 71.6 °F 49.6 °F 30.1 in WNW 4 mph 4 mph 46% 0 in 846 W/m2
14:04 71.4 °F 50.7 °F 30.1 in East 4 mph 5 mph 48% 0 in 809 W/m2
14:09 71.8 °F 50.5 °F 30.1 in ESE 2.9 mph 4 mph 47% 0 in 833 W/m2
14:14 72 °F 49.5 °F 30.1 in East 2.9 mph 6 mph 45% 0 in 766 W/m2
14:19 71.6 °F 49.6 °F 30.1 in ENE 2 mph 6 mph 46% 0 in 812 W/m2
14:24 71.2 °F 49.5 °F 30.1 in ENE 2 mph 3 mph 46% 0 in 809 W/m2
14:29 71.4 °F 48.9 °F 30.1 in NNW 0.9 mph 7 mph 45% 0 in 765 W/m2
14:34 72 °F 49.5 °F 30.1 in NW 2 mph 7 mph 45% 0 in 858 W/m2
14:39 72.1 °F 50.2 °F 30.1 in NW 0.9 mph 4 mph 46% 0 in 911 W/m2
14:44 72.7 °F 50.7 °F 30.1 in West 6 mph 8 mph 46% 0 in 826 W/m2
14:49 72.3 °F 49.8 °F 30.1 in NW 2 mph 6 mph 45% 0 in 805 W/m2
14:54 72 °F 49.5 °F 30.1 in NW 2 mph 5 mph 45% 0 in 789 W/m2
14:59 72.1 °F 50.2 °F 30.1 in WSW 4 mph 6 mph 46% 0 in 802 W/m2
15:04 72.3 °F 49.8 °F 30.1 in Calm   3 mph 45% 0 in 800 W/m2
15:09 72.9 °F 50.9 °F 30.1 in Calm   3 mph 46% 0 in 796 W/m2
15:14 73 °F 51.1 °F 30.1 in NW 4 mph 7 mph 46% 0 in 756 W/m2
15:19 72.7 °F 50.2 °F 30.1 in WSW 0.9 mph 2 mph 45% 0 in 831 W/m2
15:24 72.9 °F 50.9 °F 30.1 in ESE 2 mph 3 mph 46% 0 in 809 W/m2
15:29 73.6 °F 50.9 °F 30.1 in West 2.9 mph 8 mph 45% 0 in 772 W/m2
15:34 73.6 °F 50.4 °F 30.1 in WNW 4.9 mph 9 mph 44% 0 in 677 W/m2
15:39 73.4 °F 50.7 °F 30.1 in West 2.9 mph 4 mph 45% 0 in 689 W/m2
15:44 73.6 °F 50.9 °F 30.1 in ESE 2 mph 4 mph 45% 0 in 707 W/m2
15:49 73.8 °F 50.5 °F 30.1 in WSW 4 mph 4 mph 44% 0 in 682 W/m2
15:54 73.8 °F 50.5 °F 30.1 in WSW 2 mph 4 mph 44% 0 in 761 W/m2
15:59 73.9 °F 49.5 °F 30.1 in WNW 2 mph 4 mph 42% 0 in 677 W/m2
16:04 73.9 °F 51.3 °F 30.1 in ESE 2.9 mph 3 mph 45% 0 in 656 W/m2
16:09 74.1 °F 50.2 °F 30.1 in WSW 2 mph 4 mph 43% 0 in 617 W/m2
16:19 73.8 °F 49.8 °F 30.1 in West 2.9 mph 4 mph 43% 0 in 563 W/m2
16:24 73.8 °F 49.3 °F 30.1 in ESE 2 mph 3 mph 42% 0 in 696 W/m2
16:29 73.6 °F 49.6 °F 30.1 in West 0.9 mph 5 mph 43% 0 in 615 W/m2
16:34 73.8 °F 49.3 °F 30.1 in ESE 2 mph 2 mph 42% 0 in 633 W/m2
16:39 73.9 °F 50.7 °F 30.1 in West 6 mph 6 mph 44% 0 in 657 W/m2
16:44 74.5 °F 51.1 °F 30.1 in South 0.9 mph 3 mph 44% 0 in 649 W/m2
16:49 74.8 °F 50.2 °F 30.1 in NW 0.9 mph 3 mph 42% 0 in 647 W/m2
16:54 75 °F 49.6 °F 30.1 in West 0.9 mph 3 mph 41% 0 in 643 W/m2
16:59 75.4 °F 49.5 °F 30.1 in NNW 6 mph 6 mph 40% 0 in 645 W/m2
17:04 75 °F 49.1 °F 30.1 in NNW 2 mph 4 mph 40% 0 in 606 W/m2
17:09 74.8 °F 48.9 °F 30.1 in North 2 mph 3 mph 40% 0 in 622 W/m2
17:14 75 °F 50.4 °F 30.1 in West 2.9 mph 6 mph 42% 0 in 568 W/m2
17:19 75.2 °F 49.3 °F 30.1 in NE 2 mph 4 mph 40% 0 in 526 W/m2
17:24 74.8 °F 49.6 °F 30.1 in NE 0.9 mph 6 mph 41% 0 in 531 W/m2
17:29 75.4 °F 49.5 °F 30.1 in Calm   3 mph 40% 0 in 512 W/m2
17:34 75.7 °F 49.6 °F 30.1 in NNW 0.9 mph 1 mph 40% 0 in 520 W/m2
17:39 76.3 °F 48.7 °F 30.1 in ENE 2.9 mph 3 mph 38% 0 in 455 W/m2
17:44 75.9 °F 49.1 °F 30.1 in West 2.9 mph 4 mph 39% 0 in 512 W/m2
17:49 75.7 °F 49.1 °F 30.1 in NE 0.9 mph 2 mph 39% 0 in 533 W/m2
17:54 75.9 °F 49.1 °F 30.1 in West 2.9 mph 4 mph 39% 0 in 394 W/m2
17:59 75.6 °F 48.9 °F 30.1 in West 2 mph 3 mph 39% 0 in 429 W/m2
18:04 75.4 °F 49.5 °F 30.1 in NW 0.9 mph 4 mph 40% 0 in 436 W/m2
18:09 75.6 °F 49.5 °F 30.1 in North 2.9 mph 4 mph 40% 0 in 452 W/m2
18:14 75.6 °F 48.9 °F 30.1 in West 0.9 mph 2 mph 39% 0 in 355 W/m2
18:19 75.6 °F 49.5 °F 30.1 in ENE 0.9 mph 3 mph 40% 0 in 283 W/m2
18:24 75.6 °F 49.5 °F 30.1 in NE 0.9 mph 4 mph 40% 0 in 295 W/m2
18:29 75.4 °F 50.7 °F 30.1 in ENE 0.9 mph 2 mph 42% 0 in 336 W/m2
18:34 75.4 °F 50 °F 30.1 in SE 0.9 mph 3 mph 41% 0 in 281 W/m2
18:39 75.4 °F 49.5 °F 30.1 in NNW 2.9 mph 3 mph 40% 0 in 178 W/m2
18:44 75.2 °F 48.6 °F 30.1 in WNW 0.9 mph 5 mph 39% 0 in 120 W/m2
18:49 75.2 °F 49.3 °F 30.1 in ESE 0.9 mph 3 mph 40% 0 in 125 W/m2
18:54 75.6 °F 49.5 °F 30.1 in SE 2.9 mph 3 mph 40% 0 in 116 W/m2
18:59 75.6 °F 48.9 °F 30.1 in East 2 mph 3 mph 39% 0 in 104 W/m2
19:04 75.4 °F 48.7 °F 30.1 in East 0.9 mph 4 mph 39% 0 in 98 W/m2
19:09 75 °F 49.1 °F 30.1 in NE 2.9 mph 3 mph 40% 0 in 86 W/m2
19:14 75 °F 49.6 °F 30.1 in Calm   2 mph 41% 0 in 74 W/m2
19:19 75 °F 49.1 °F 30.1 in Calm   3 mph 40% 0 in 76 W/m2
19:24 75.2 °F 49.3 °F 30.1 in Calm   1 mph 40% 0 in 69 W/m2
19:29 75.2 °F 50.5 °F 30.1 in NE 2 mph 3 mph 42% 0 in 69 W/m2
19:34 74.8 °F 50.2 °F 30.1 in WNW 2 mph 4 mph 42% 0 in 67 W/m2
19:39 74.7 °F 50.7 °F 30.1 in NE 4 mph 4 mph 43% 0 in 69 W/m2
19:44 74.5 °F 50.5 °F 30.1 in Calm   1 mph 43% 0 in 62 W/m2
19:49 74.3 °F 50.9 °F 30.1 in Calm   1 mph 44% 0 in 53 W/m2
19:54 73.9 °F 50.7 °F 30.1 in East 0.9 mph 2 mph 44% 0 in 47 W/m2
19:59 73.6 °F 50.9 °F 30.1 in West 2 mph 3 mph 45% 0 in 46 W/m2
20:04 73 °F 51.1 °F 30.1 in WSW 0.9 mph 1 mph 46% 0 in 47 W/m2
20:09 72.7 °F 52.9 °F 30.1 in WSW 0.9 mph 3 mph 50% 0 in 40 W/m2
20:14 72.3 °F 53.2 °F 30.1 in Calm   2 mph 51% 0 in 37 W/m2
20:19 71.8 °F 53.2 °F 30.1 in Calm   1 mph 52% 0 in 35 W/m2
20:24 71.2 °F 53.2 °F 30.1 in WSW 2 mph 2 mph 53% 0 in 35 W/m2
20:29 70.7 °F 53.2 °F 30.1 in WSW 0.9 mph 2 mph 54% 0 in 35 W/m2
20:34 70.2 °F 52.7 °F 30.1 in WSW 0.9 mph 1 mph 54% 0 in 35 W/m2
20:39 69.8 °F 52.3 °F 30.1 in Calm     54% 0 in 32 W/m2
20:44 69.4 °F 52.2 °F 30.1 in Calm     54% 0 in 28 W/m2
20:50 69.1 °F 51.8 °F 30.1 in Calm     54% 0 in 25 W/m2
20:55 68.5 °F 51.3 °F 30.1 in Calm   1 mph 54% 0 in 19 W/m2
21:00 68.2 °F 50.9 °F 30.1 in Calm     54% 0 in 14 W/m2
21:05 67.6 °F 50.4 °F 30.1 in WSW 0.9 mph 2 mph 54% 0 in 11 W/m2
21:10 67.1 °F 50.9 °F 30.1 in WSW 0.9 mph 2 mph 56% 0 in 7 W/m2
21:15 66.7 °F 50.5 °F 30.1 in Calm     56% 0 in 5 W/m2
21:20 66.2 °F 50 °F 30.1 in Calm   2 mph 56% 0 in 0 W/m2
21:25 65.7 °F 50 °F 30.1 in Calm     57% 0 in 0 W/m2
21:30 65.1 °F 50 °F 30.1 in Calm     58% 0 in 0 W/m2
21:35 64.8 °F 50.2 °F 30.1 in Calm     59% 0 in 0 W/m2
21:40 64.2 °F 50 °F 30.1 in Calm     60% 0 in 0 W/m2
21:45 63.9 °F 50.2 °F 30.1 in Calm     61% 0 in 0 W/m2
21:50 63.3 °F 49.6 °F 30.1 in Calm     61% 0 in 0 W/m2
21:55 63 °F 49.3 °F 30.1 in Calm     61% 0 in 0 W/m2
22:00 62.6 °F 49.5 °F 30.1 in Calm     62% 0 in 0 W/m2
22:05 62.2 °F 49.5 °F 30.1 in Calm     63% 0 in 0 W/m2
22:10 62.1 °F 49.3 °F 30.1 in Calm     63% 0 in 0 W/m2
22:15 61.9 °F 49.6 °F 30.1 in Calm     64% 0 in 0 W/m2
22:20 61.5 °F 49.3 °F 30.1 in Calm     64% 0 in 0 W/m2
22:25 61.3 °F 49.5 °F 30.1 in Calm     65% 0 in 0 W/m2
22:30 61.2 °F 49.3 °F 30.1 in Calm     65% 0 in 0 W/m2
22:35 61 °F 49.1 °F 30.1 in Calm     65% 0 in 0 W/m2
22:40 60.6 °F 49.3 °F 30.1 in Calm     66% 0 in 0 W/m2
22:50 60.3 °F 49.3 °F 30.1 in Calm     67% 0 in 0 W/m2
22:55 60.1 °F 48.7 °F 30.1 in Calm     66% 0 in 0 W/m2
23:00 60.1 °F 49.1 °F 30.1 in Calm     67% 0 in 0 W/m2
23:05 60.1 °F 49.1 °F 30.1 in Calm     67% 0 in 0 W/m2
23:10 59.7 °F 48.7 °F 30.1 in Calm     67% 0 in 0 W/m2
23:15 59.5 °F 48.6 °F 30.1 in Calm     67% 0 in 0 W/m2
23:20 59.4 °F 48.7 °F 30.1 in Calm     68% 0 in 0 W/m2
23:25 59.2 °F 48.6 °F 30.1 in Calm     68% 0 in 0 W/m2
23:30 59 °F 48.4 °F 30.1 in Calm     68% 0 in 0 W/m2
23:35 58.6 °F 48.6 °F 30.1 in Calm     69% 0 in 0 W/m2
23:40 58.6 °F 48.9 °F 30.1 in Calm     70% 0 in 0 W/m2
23:45 58.5 °F 49.5 °F 30.1 in Calm     72% 0 in 0 W/m2
23:50 58.3 °F 49.3 °F 30.1 in Calm     72% 0 in 0 W/m2
23:55 57.9 °F 48.9 °F 30.1 in Calm     72% 0 in 0 W/m2
Juneau County Weather
Compliments of Weather Underground - 4 mb